DWI6206 MDPC-SAEZ

Flight info

Callsign DWI6206
Flight time 7h 22m
Altitude 33000
Route POKAK2T POKAK UL216 BEXER/N0471F340 UL325 TAKEK/N0471F330 UL793 KAKER/N0469F340 UL793 LOGON/N0470F350 UL793 PUBIT/N0471F340 UL793 DARIO/N0467F360 UL793 UDIDI/N0466F350 UL793 TEPUG/N0461F370 UL793 OROMU/N0462F360 UL793 MADSA/N0455F380 UL793 GUA UZ129 PAGON PAGON7X
Aircraft B38M/M-SDE1FGHILORVWXY/HB1

Departure

Time 2026-05-04 20:32
Airport Punta Cana International Airport (MDPC)

Arrival

Time 2026-05-05 03:54
Airport Ezeiza International Airport - Ministro Pistarini (SAEZ)
Time Latitude Longitude Altitude Speed Heading
2026-05-04 20:14 18.56416 -68.37260 53 ft 0 kts 174°
2026-05-04 20:23 18.56419 -68.37260 48 ft 3 kts 174°
2026-05-04 20:23 18.56445 -68.37263 51 ft 4 kts 175°
2026-05-04 20:23 18.56470 -68.37259 47 ft 4 kts 216°
2026-05-04 20:23 18.56482 -68.37239 53 ft 3 kts 264°
2026-05-04 20:24 18.56484 -68.37216 53 ft 4 kts 265°
2026-05-04 20:24 18.56484 -68.37210 53 ft 2 kts 265°
2026-05-04 20:26 18.56484 -68.37211 53 ft 1 kts 265°
2026-05-04 20:27 18.56482 -68.37234 53 ft 5 kts 264°
2026-05-04 20:27 18.56478 -68.37287 53 ft 10 kts 265°
2026-05-04 20:27 18.56470 -68.37376 53 ft 11 kts 264°
2026-05-04 20:27 18.56460 -68.37476 47 ft 14 kts 265°
2026-05-04 20:28 18.56450 -68.37601 53 ft 18 kts 265°
2026-05-04 20:28 18.56447 -68.37746 47 ft 15 kts 290°
2026-05-04 20:28 18.56519 -68.37784 50 ft 12 kts 354°
2026-05-04 20:28 18.56621 -68.37793 51 ft 18 kts 356°
2026-05-04 20:29 18.56706 -68.37854 52 ft 16 kts 297°
2026-05-04 20:29 18.56759 -68.37990 51 ft 23 kts 292°
2026-05-04 20:29 18.56817 -68.38127 48 ft 17 kts 296°
2026-05-04 20:29 18.56868 -68.38234 49 ft 14 kts 304°
2026-05-04 20:30 18.56920 -68.38260 54 ft 7 kts 343°
2026-05-04 20:30 18.56968 -68.38275 54 ft 7 kts 343°
2026-05-04 20:30 18.57014 -68.38271 54 ft 7 kts 34°
2026-05-04 20:30 18.57047 -68.38217 53 ft 20 kts 79°
2026-05-04 20:31 18.57153 -68.37846 48 ft 88 kts 75°
2026-05-04 20:31 18.57384 -68.37010 49 ft 147 kts 73°
2026-05-04 20:31 18.57717 -68.35837 65 ft 187 kts 76°
2026-05-04 20:31 18.58098 -68.34491 569 ft 193 kts 78°
2026-05-04 20:32 18.58459 -68.33119 1209 ft 191 kts 77°
2026-05-04 20:32 18.58827 -68.31817 2041 ft 185 kts 83°
2026-05-04 20:32 18.58737 -68.30454 2466 ft 191 kts 116°
2026-05-04 20:32 18.57878 -68.29395 3010 ft 192 kts 148°
2026-05-04 20:33 18.57707 -68.29284 3117 ft 191 kts 149°
2026-05-04 20:33 18.57023 -68.28857 3630 ft 185 kts 147°
2026-05-04 20:33 18.56920 -68.28787 3698 ft 185 kts 146°
2026-05-04 20:34 18.56382 -68.28387 4032 ft 185 kts 144°
2026-05-04 20:34 18.55345 -68.27594 4665 ft 186 kts 142°
2026-05-04 20:34 18.54290 -68.26759 5173 ft 194 kts 142°
2026-05-04 20:34 18.53163 -68.25918 5670 ft 203 kts 150°
2026-05-04 20:35 18.51763 -68.25526 6115 ft 218 kts 175°
2026-05-04 20:35 18.50201 -68.25707 6484 ft 237 kts 186°
2026-05-04 20:35 18.48569 -68.25990 7169 ft 239 kts 185°
2026-05-04 20:35 18.46882 -68.26205 7658 ft 250 kts 183°
2026-05-04 20:36 18.45104 -68.26398 8049 ft 267 kts 184°
2026-05-04 20:36 18.43199 -68.26617 8426 ft 283 kts 184°
2026-05-04 20:36 18.41234 -68.26853 9176 ft 283 kts 185°
2026-05-04 20:36 18.39273 -68.27095 9939 ft 285 kts 185°
2026-05-04 20:37 18.37289 -68.27339 10409 ft 295 kts 185°
2026-05-04 20:37 18.35184 -68.27602 10710 ft 312 kts 186°
2026-05-04 20:37 18.32966 -68.27879 10946 ft 329 kts 186°
2026-05-04 20:37 18.30633 -68.28171 11229 ft 343 kts 186°
2026-05-04 20:38 18.28264 -68.28467 11676 ft 348 kts 186°
2026-05-04 20:38 18.25840 -68.28771 12297 ft 350 kts 186°
2026-05-04 20:38 18.23391 -68.29078 12764 ft 356 kts 187°
2026-05-04 20:38 18.20942 -68.29384 13307 ft 359 kts 187°
2026-05-04 20:39 18.18432 -68.29698 13803 ft 364 kts 187°
2026-05-04 20:39 18.15899 -68.30014 14234 ft 367 kts 187°
2026-05-04 20:39 18.13373 -68.30330 14686 ft 370 kts 188°
2026-05-04 20:39 18.10796 -68.30651 15140 ft 373 kts 188°
2026-05-04 20:40 18.08209 -68.30974 15579 ft 376 kts 188°
2026-05-04 20:40 18.05610 -68.31298 16023 ft 378 kts 188°
2026-05-04 20:40 18.02981 -68.31626 16451 ft 381 kts 188°
2026-05-04 20:40 18.00339 -68.31956 16870 ft 383 kts 189°
2026-05-04 20:41 17.97673 -68.32288 17291 ft 386 kts 189°
2026-05-04 20:41 17.95015 -68.32619 17692 ft 388 kts 189°
2026-05-04 20:41 17.92337 -68.32953 18091 ft 391 kts 189°
2026-05-04 20:41 17.89607 -68.33293 18464 ft 393 kts 189°
2026-05-04 20:42 17.86880 -68.33632 18815 ft 395 kts 189°
2026-05-04 20:42 17.84183 -68.33968 19152 ft 397 kts 189°
2026-05-04 20:42 17.81402 -68.34314 19503 ft 399 kts 188°
2026-05-04 20:42 17.78628 -68.34659 19831 ft 401 kts 188°
2026-05-04 20:43 17.75885 -68.35000 20162 ft 402 kts 188°
2026-05-04 20:43 17.73084 -68.35349 20491 ft 404 kts 188°
2026-05-04 20:43 17.70270 -68.35699 20826 ft 406 kts 188°
2026-05-04 20:43 17.67483 -68.36045 21149 ft 407 kts 188°
2026-05-04 20:44 17.64661 -68.36395 21480 ft 409 kts 188°
2026-05-04 20:44 17.61819 -68.36748 21798 ft 411 kts 188°
2026-05-04 20:44 17.59000 -68.37098 22109 ft 413 kts 188°
2026-05-04 20:44 17.56120 -68.37456 22426 ft 415 kts 187°
2026-05-04 20:45 17.53238 -68.37813 22762 ft 416 kts 187°
2026-05-04 20:45 17.50390 -68.38167 23061 ft 418 kts 187°
2026-05-04 20:45 17.47479 -68.38527 23373 ft 420 kts 187°
2026-05-04 20:45 17.44556 -68.38890 23657 ft 422 kts 187°
2026-05-04 20:46 17.41670 -68.39248 23892 ft 424 kts 187°
2026-05-04 20:46 17.38729 -68.39612 24130 ft 426 kts 187°
2026-05-04 20:46 17.35760 -68.39980 24366 ft 428 kts 187°
2026-05-04 20:46 17.32783 -68.40348 24610 ft 430 kts 187°
2026-05-04 20:47 17.29839 -68.40712 24830 ft 433 kts 188°
2026-05-04 20:47 17.26830 -68.41085 25070 ft 435 kts 188°
2026-05-04 20:47 17.23820 -68.41457 25305 ft 437 kts 188°
2026-05-04 20:47 17.20780 -68.41833 25528 ft 439 kts 188°
2026-05-04 20:48 17.17724 -68.42210 25765 ft 441 kts 188°
2026-05-04 20:48 17.14668 -68.42588 25997 ft 443 kts 188°
2026-05-04 20:48 17.11636 -68.42963 26215 ft 445 kts 188°
2026-05-04 20:48 17.08542 -68.43345 26444 ft 447 kts 188°
2026-05-04 20:49 17.05446 -68.43726 26662 ft 449 kts 188°
2026-05-04 20:49 17.02363 -68.44107 26873 ft 451 kts 188°
2026-05-04 20:49 16.99213 -68.44496 27108 ft 453 kts 188°
2026-05-04 20:49 16.96112 -68.44878 27316 ft 455 kts 188°
2026-05-04 20:50 16.92953 -68.45267 27534 ft 456 kts 188°
2026-05-04 20:50 16.89785 -68.45657 27757 ft 458 kts 188°
2026-05-04 20:50 16.86601 -68.46050 27965 ft 460 kts 188°
2026-05-04 20:50 16.83405 -68.46443 28168 ft 462 kts 188°
2026-05-04 20:51 16.80244 -68.46833 28385 ft 463 kts 188°
2026-05-04 20:51 16.77023 -68.47228 28582 ft 465 kts 188°
2026-05-04 20:51 16.73827 -68.47622 28780 ft 467 kts 188°
2026-05-04 20:51 16.70589 -68.48020 28976 ft 469 kts 188°
2026-05-04 20:52 16.67346 -68.48419 29171 ft 470 kts 188°
2026-05-04 20:52 16.64078 -68.48820 29353 ft 472 kts 188°
2026-05-04 20:52 16.60795 -68.49224 29564 ft 474 kts 188°
2026-05-04 20:52 16.57559 -68.49621 29736 ft 475 kts 188°
2026-05-04 20:53 16.54260 -68.50026 29920 ft 477 kts 188°
2026-05-04 20:53 16.50975 -68.50429 30082 ft 478 kts 188°
2026-05-04 20:53 16.47651 -68.50837 30240 ft 480 kts 188°
2026-05-04 20:53 16.44316 -68.51245 30403 ft 480 kts 188°
2026-05-04 20:54 16.41032 -68.51648 30589 ft 481 kts 188°
2026-05-04 20:54 16.37686 -68.52058 30740 ft 482 kts 188°
2026-05-04 20:54 16.34354 -68.52467 30894 ft 483 kts 188°
2026-05-04 20:54 16.30981 -68.52879 31059 ft 484 kts 188°
2026-05-04 20:55 16.27662 -68.53286 31205 ft 485 kts 188°
2026-05-04 20:55 16.24296 -68.53698 31370 ft 486 kts 188°
2026-05-04 20:55 16.20957 -68.54106 31577 ft 485 kts 188°
2026-05-04 20:55 16.17605 -68.54516 31797 ft 484 kts 188°
2026-05-04 20:56 16.14253 -68.54926 32010 ft 483 kts 188°
2026-05-04 20:56 16.10908 -68.55335 32221 ft 483 kts 188°
2026-05-04 20:56 16.07609 -68.55738 32424 ft 482 kts 188°
2026-05-04 20:56 16.04262 -68.56146 32629 ft 481 kts 188°
2026-05-04 20:57 16.00919 -68.56478 32824 ft 482 kts 181°
2026-05-04 20:57 15.97583 -68.56082 32963 ft 482 kts 169°
2026-05-04 20:57 15.91011 -68.54739 32977 ft 483 kts 170°
2026-05-04 20:58 15.84442 -68.53358 32976 ft 484 kts 169°
2026-05-04 20:58 15.77822 -68.51953 32970 ft 484 kts 169°
2026-05-04 20:59 15.71246 -68.50557 32973 ft 484 kts 169°
2026-05-04 20:59 15.64617 -68.49151 32968 ft 485 kts 169°
2026-05-04 21:00 15.58013 -68.47751 32969 ft 485 kts 169°
2026-05-04 21:00 15.51421 -68.46355 32965 ft 486 kts 169°
2026-05-04 21:01 15.44762 -68.44945 32964 ft 486 kts 170°
2026-05-04 21:01 15.38152 -68.43547 32966 ft 487 kts 169°
2026-05-04 21:02 15.31527 -68.42146 32962 ft 487 kts 169°
2026-05-04 21:02 15.24880 -68.40742 32962 ft 487 kts 169°
2026-05-04 21:03 15.18262 -68.39357 32963 ft 487 kts 170°
2026-05-04 21:03 15.11634 -68.37979 32964 ft 487 kts 170°
2026-05-04 21:04 15.04961 -68.36592 32960 ft 487 kts 170°
2026-05-04 21:04 14.98317 -68.35212 32954 ft 487 kts 170°
2026-05-04 21:05 14.91692 -68.33837 32953 ft 487 kts 170°
2026-05-04 21:05 14.85054 -68.32459 32958 ft 487 kts 169°
2026-05-04 21:06 14.78410 -68.31082 32954 ft 488 kts 169°
2026-05-04 21:06 14.71733 -68.29691 32951 ft 488 kts 169°
2026-05-04 21:07 14.65103 -68.28304 32948 ft 488 kts 169°
2026-05-04 21:07 14.58465 -68.26918 32948 ft 488 kts 169°
2026-05-04 21:08 14.51782 -68.25523 32948 ft 488 kts 169°
2026-05-04 21:08 14.45134 -68.24136 32948 ft 489 kts 169°
2026-05-04 21:09 14.39555 -68.22972 32950 ft 489 kts 169°
2026-05-04 21:09 14.31807 -68.21358 32946 ft 489 kts 169°
2026-05-04 21:10 14.26228 -68.20196 32948 ft 490 kts 169°
2026-05-04 21:10 14.19525 -68.19442 32938 ft 484 kts 189°
2026-05-04 21:11 14.16268 -68.20252 32949 ft 480 kts 203°
2026-05-04 21:11 14.13133 -68.21486 32941 ft 482 kts 203°
2026-05-04 21:11 14.06874 -68.24014 32943 ft 482 kts 204°
2026-05-04 21:12 14.00410 -68.25661 32943 ft 485 kts 181°
2026-05-04 21:12 13.93685 -68.24985 32950 ft 488 kts 176°
2026-05-04 21:13 13.86876 -68.24442 32940 ft 489 kts 177°
2026-05-04 21:13 13.80107 -68.23922 32940 ft 489 kts 177°
2026-05-04 21:14 13.73317 -68.23401 32940 ft 489 kts 177°
2026-05-04 21:14 13.66544 -68.22882 32939 ft 489 kts 177°
2026-05-04 21:15 13.59730 -68.22361 32940 ft 490 kts 177°
2026-05-04 21:15 13.52949 -68.21842 32937 ft 490 kts 177°
2026-05-04 21:16 13.46152 -68.21322 32940 ft 490 kts 177°
2026-05-04 21:16 13.39330 -68.20800 32936 ft 490 kts 177°
2026-05-04 21:17 13.32545 -68.20282 32935 ft 490 kts 177°
2026-05-04 21:17 13.25723 -68.19761 32932 ft 491 kts 177°
2026-05-04 21:18 13.18950 -68.19244 32933 ft 491 kts 177°
2026-05-04 21:18 13.12107 -68.18722 32932 ft 491 kts 177°
2026-05-04 21:19 13.05310 -68.18204 32933 ft 491 kts 177°
2026-05-04 21:19 12.98477 -68.17683 32930 ft 491 kts 177°
2026-05-04 21:20 12.91692 -68.17167 32929 ft 491 kts 177°
2026-05-04 21:20 12.84884 -68.16649 32927 ft 491 kts 177°
2026-05-04 21:21 12.78049 -68.16129 32928 ft 491 kts 177°
2026-05-04 21:21 12.71260 -68.15613 32930 ft 491 kts 177°
2026-05-04 21:22 12.64404 -68.15092 32927 ft 491 kts 177°
2026-05-04 21:22 12.57594 -68.14574 32929 ft 491 kts 177°
2026-05-04 21:23 12.50798 -68.14059 32922 ft 491 kts 177°
2026-05-04 21:23 12.43955 -68.13540 32922 ft 491 kts 177°
2026-05-04 21:24 12.37162 -68.13024 32920 ft 492 kts 177°
2026-05-04 21:24 12.30361 -68.12509 32916 ft 491 kts 177°
2026-05-04 21:25 12.23508 -68.11990 32915 ft 491 kts 177°
2026-05-04 21:25 12.16713 -68.11476 32915 ft 491 kts 177°
2026-05-04 21:26 12.09872 -68.10958 32915 ft 491 kts 177°
2026-05-04 21:26 12.03061 -68.10443 32909 ft 491 kts 177°
2026-05-04 21:27 11.96273 -68.09930 32912 ft 492 kts 177°
2026-05-04 21:27 11.89411 -68.09412 32911 ft 492 kts 177°
2026-05-04 21:28 11.82622 -68.08899 32910 ft 492 kts 177°
2026-05-04 21:28 11.75777 -68.08382 32907 ft 492 kts 177°
2026-05-04 21:29 11.68962 -68.07868 32908 ft 492 kts 177°
2026-05-04 21:29 11.62152 -68.07355 32908 ft 492 kts 177°
2026-05-04 21:30 11.55297 -68.06838 32907 ft 492 kts 177°
2026-05-04 21:30 11.48482 -68.06325 32908 ft 492 kts 177°
2026-05-04 21:31 11.38385 -68.04662 32903 ft 492 kts 168°
2026-05-04 21:32 11.31710 -68.03132 32905 ft 493 kts 168°
2026-05-04 21:32 11.24994 -68.01587 32904 ft 492 kts 168°
2026-05-04 21:33 11.18338 -68.00056 32905 ft 492 kts 168°
2026-05-04 21:33 11.11657 -67.98521 32907 ft 492 kts 168°
2026-05-04 21:34 11.04963 -67.96996 32907 ft 492 kts 168°
2026-05-04 21:34 10.98306 -67.95496 32907 ft 492 kts 168°
2026-05-04 21:35 10.91587 -67.94018 32904 ft 492 kts 168°
2026-05-04 21:35 10.84924 -67.92549 32905 ft 492 kts 168°
2026-05-04 21:36 10.78236 -67.91075 32906 ft 491 kts 168°
2026-05-04 21:36 10.71577 -67.89605 32905 ft 491 kts 168°
2026-05-04 21:37 10.64911 -67.88135 32911 ft 491 kts 168°
2026-05-04 21:37 10.58243 -67.86668 32915 ft 491 kts 168°
2026-05-04 21:38 10.51539 -67.85193 32912 ft 491 kts 168°
2026-05-04 21:38 10.44881 -67.83715 32914 ft 491 kts 168°
2026-05-04 21:39 10.38228 -67.82228 32903 ft 490 kts 168°
2026-05-04 21:39 10.31531 -67.80733 32910 ft 490 kts 168°
2026-05-04 21:40 10.24909 -67.79255 32911 ft 490 kts 168°
2026-05-04 21:40 10.18235 -67.77766 32910 ft 490 kts 168°
2026-05-04 21:41 10.11614 -67.76290 32912 ft 489 kts 168°
2026-05-04 21:41 10.04970 -67.74809 32906 ft 489 kts 168°
2026-05-04 21:42 9.98289 -67.73319 32905 ft 489 kts 168°
2026-05-04 21:42 9.91698 -67.71845 32899 ft 488 kts 168°
2026-05-04 21:43 9.85042 -67.70359 32888 ft 488 kts 168°
2026-05-04 21:43 9.78435 -67.68883 32886 ft 487 kts 168°
2026-05-04 21:44 9.71825 -67.67408 32889 ft 487 kts 168°
2026-05-04 21:44 9.65186 -67.65926 32877 ft 486 kts 168°
2026-05-04 21:45 9.58613 -67.64460 32873 ft 486 kts 168°
2026-05-04 21:45 9.52017 -67.62989 32872 ft 485 kts 168°
2026-05-04 21:46 9.45395 -67.61514 32865 ft 485 kts 168°
2026-05-04 21:46 9.38837 -67.60052 32861 ft 484 kts 168°
2026-05-04 21:47 9.32253 -67.58586 32860 ft 484 kts 168°
2026-05-04 21:47 9.25663 -67.57119 32858 ft 483 kts 168°
2026-05-04 21:48 9.19120 -67.55663 32857 ft 483 kts 168°
2026-05-04 21:48 9.12565 -67.54205 32852 ft 482 kts 169°
2026-05-04 21:49 9.06008 -67.52747 32853 ft 481 kts 169°
2026-05-04 21:49 8.99480 -67.51296 32853 ft 481 kts 169°
2026-05-04 21:50 8.92976 -67.49851 32846 ft 481 kts 169°
2026-05-04 21:50 8.86415 -67.48393 32853 ft 480 kts 169°
2026-05-04 21:51 8.79911 -67.46949 32857 ft 480 kts 169°
2026-05-04 21:51 8.73413 -67.45507 32854 ft 479 kts 169°
2026-05-04 21:52 8.66883 -67.44058 32852 ft 478 kts 169°
2026-05-04 21:52 8.60403 -67.42621 32855 ft 478 kts 169°
2026-05-04 21:53 8.53914 -67.41182 32851 ft 478 kts 169°
2026-05-04 21:53 8.47454 -67.39750 32852 ft 477 kts 169°
2026-05-04 21:54 8.40945 -67.38308 32854 ft 477 kts 169°
2026-05-04 21:54 8.34497 -67.36880 32848 ft 476 kts 169°
2026-05-04 21:55 8.27997 -67.35442 32851 ft 476 kts 169°
2026-05-04 21:55 8.21555 -67.34017 32847 ft 476 kts 169°
2026-05-04 21:56 8.15079 -67.32586 32851 ft 475 kts 169°
2026-05-04 21:56 8.08642 -67.31162 32849 ft 475 kts 169°
2026-05-04 21:57 8.02186 -67.29736 32848 ft 474 kts 169°
2026-05-04 21:57 7.95712 -67.28307 32852 ft 474 kts 169°
2026-05-04 21:58 7.89313 -67.26893 32857 ft 474 kts 169°
2026-05-04 21:58 7.82878 -67.25475 32855 ft 473 kts 169°
2026-05-04 21:59 7.77509 -67.24292 32851 ft 473 kts 169°
2026-05-04 21:59 7.71065 -67.22873 32851 ft 472 kts 169°
2026-05-04 22:00 7.64659 -67.21463 32858 ft 472 kts 169°
2026-05-04 22:00 7.58275 -67.20058 32861 ft 471 kts 169°
2026-05-04 22:01 7.51849 -67.18645 32853 ft 471 kts 169°
2026-05-04 22:01 7.45464 -67.17240 32865 ft 470 kts 169°
2026-05-04 22:02 7.39073 -67.15835 32862 ft 470 kts 169°
2026-05-04 22:02 7.32703 -67.14435 32866 ft 470 kts 169°
2026-05-04 22:03 7.26294 -67.13027 32865 ft 469 kts 169°
2026-05-04 22:03 7.19935 -67.11630 32862 ft 469 kts 169°
2026-05-04 22:04 7.13576 -67.10234 32867 ft 469 kts 169°
2026-05-04 22:04 7.07183 -67.08792 32865 ft 469 kts 168°
2026-05-04 22:05 7.00835 -67.07360 32865 ft 469 kts 168°
2026-05-04 22:05 6.94490 -67.05928 32862 ft 469 kts 168°
2026-05-04 22:06 6.88100 -67.04487 32870 ft 469 kts 168°
2026-05-04 22:06 6.81752 -67.03057 32869 ft 469 kts 168°
2026-05-04 22:07 6.75347 -67.01613 32873 ft 470 kts 168°
2026-05-04 22:07 6.68978 -67.00177 32871 ft 470 kts 168°
2026-05-04 22:08 6.62583 -66.98737 32871 ft 470 kts 168°
2026-05-04 22:08 6.56226 -66.97294 32878 ft 470 kts 166°
2026-05-04 22:09 6.49877 -66.95595 32877 ft 470 kts 166°
2026-05-04 22:09 6.43548 -66.93925 32889 ft 471 kts 166°
2026-05-04 22:10 6.37219 -66.92258 32892 ft 470 kts 166°
2026-05-04 22:10 6.30908 -66.90597 32899 ft 471 kts 166°
2026-05-04 22:11 6.24583 -66.88932 32897 ft 471 kts 166°
2026-05-04 22:11 6.18229 -66.87260 32905 ft 471 kts 166°
2026-05-04 22:12 6.11901 -66.85596 32907 ft 471 kts 166°
2026-05-04 22:12 6.05554 -66.83927 32918 ft 471 kts 166°
2026-05-04 22:13 5.99193 -66.82255 32922 ft 471 kts 166°
2026-05-04 22:13 5.92873 -66.80594 32926 ft 471 kts 165°
2026-05-04 22:14 5.86553 -66.78933 32923 ft 470 kts 165°
2026-05-04 22:14 5.80242 -66.77275 32927 ft 470 kts 165°
2026-05-04 22:15 5.73892 -66.75607 32932 ft 469 kts 165°
2026-05-04 22:15 5.67596 -66.73954 32925 ft 469 kts 165°
2026-05-04 22:16 5.61308 -66.72303 32929 ft 468 kts 165°
2026-05-04 22:16 5.54978 -66.70642 32929 ft 468 kts 165°
2026-05-04 22:17 5.48703 -66.68995 32929 ft 467 kts 165°
2026-05-04 22:17 5.42392 -66.67339 32924 ft 467 kts 165°
2026-05-04 22:18 5.36131 -66.65697 32921 ft 467 kts 165°
2026-05-04 22:18 5.29823 -66.64043 32919 ft 467 kts 165°
2026-05-04 22:19 5.23539 -66.62396 32918 ft 467 kts 165°
2026-05-04 22:19 5.17268 -66.60752 32916 ft 467 kts 165°
2026-05-04 22:20 5.11016 -66.59113 32919 ft 466 kts 165°
2026-05-04 22:20 5.04716 -66.57463 32924 ft 467 kts 165°
2026-05-04 22:21 4.98418 -66.55813 32919 ft 467 kts 165°
2026-05-04 22:21 4.92160 -66.54173 32920 ft 466 kts 165°
2026-05-04 22:22 4.85869 -66.52526 32916 ft 466 kts 165°
2026-05-04 22:22 4.79601 -66.50885 32918 ft 466 kts 165°
2026-05-04 22:23 4.73335 -66.49245 32914 ft 466 kts 165°
2026-05-04 22:23 4.67072 -66.47605 32914 ft 465 kts 165°
2026-05-04 22:24 4.60787 -66.45960 32908 ft 466 kts 165°
2026-05-04 22:24 4.54539 -66.44326 32906 ft 466 kts 165°
2026-05-04 22:25 4.48240 -66.42678 32896 ft 467 kts 165°
2026-05-04 22:25 4.41940 -66.41234 32906 ft 467 kts 169°
2026-05-04 22:26 4.35530 -66.40012 32891 ft 467 kts 168°
2026-05-04 22:26 4.29166 -66.38765 32899 ft 468 kts 168°
2026-05-04 22:27 4.22755 -66.37505 32903 ft 468 kts 168°
2026-05-04 22:27 4.16384 -66.36253 32901 ft 468 kts 168°
2026-05-04 22:28 4.09996 -66.34998 32898 ft 468 kts 168°
2026-05-04 22:28 4.03570 -66.33736 32902 ft 468 kts 168°
2026-05-04 22:29 3.97180 -66.32481 32898 ft 468 kts 168°
2026-05-04 22:29 3.90803 -66.31229 32912 ft 468 kts 168°
2026-05-04 22:30 3.84384 -66.29969 32909 ft 468 kts 168°
2026-05-04 22:30 3.78020 -66.28719 32901 ft 468 kts 168°
2026-05-04 22:31 3.71597 -66.27458 32913 ft 468 kts 168°
2026-05-04 22:31 3.65222 -66.26207 32911 ft 468 kts 168°
2026-05-04 22:32 3.58836 -66.24955 32913 ft 468 kts 168°
2026-05-04 22:32 3.52424 -66.23696 32916 ft 468 kts 168°
2026-05-04 22:33 3.46081 -66.22452 32922 ft 466 kts 168°
2026-05-04 22:33 3.39693 -66.21199 32908 ft 466 kts 168°
2026-05-04 22:34 3.33309 -66.19947 32909 ft 466 kts 168°
2026-05-04 22:34 3.26955 -66.18702 32907 ft 466 kts 168°
2026-05-04 22:35 3.20582 -66.17452 32908 ft 467 kts 168°
2026-05-04 22:35 3.14220 -66.16205 32910 ft 467 kts 168°
2026-05-04 22:36 3.07830 -66.14952 32911 ft 467 kts 168°
2026-05-04 22:36 3.01474 -66.13707 32908 ft 467 kts 168°
2026-05-04 22:37 2.95111 -66.12459 32905 ft 467 kts 168°
2026-05-04 22:37 2.88738 -66.11211 32903 ft 468 kts 168°
2026-05-04 22:38 2.82321 -66.09954 32903 ft 468 kts 168°
2026-05-04 22:38 2.75938 -66.08704 32900 ft 468 kts 168°
2026-05-04 22:39 2.69564 -66.07455 32900 ft 469 kts 168°
2026-05-04 22:39 2.63134 -66.06196 32903 ft 469 kts 168°
2026-05-04 22:40 2.56760 -66.04948 32902 ft 469 kts 168°
2026-05-04 22:40 2.50368 -66.03696 32902 ft 468 kts 168°
2026-05-04 22:41 2.43943 -66.02438 32906 ft 468 kts 168°
2026-05-04 22:41 2.37574 -66.01187 32906 ft 469 kts 168°
2026-05-04 22:42 2.31169 -65.99921 32906 ft 468 kts 168°
2026-05-04 22:42 2.24793 -65.98662 32906 ft 468 kts 168°
2026-05-04 22:43 2.18381 -65.97396 32906 ft 468 kts 168°
2026-05-04 22:43 2.12000 -65.96136 32906 ft 468 kts 167°
2026-05-04 22:44 2.05622 -65.94877 32907 ft 468 kts 167°
2026-05-04 22:44 1.99232 -65.93616 32908 ft 468 kts 167°
2026-05-04 22:45 1.92863 -65.92358 32906 ft 468 kts 167°
2026-05-04 22:45 1.83257 -65.90463 32913 ft 468 kts 167°
2026-05-04 22:46 1.76874 -65.89203 32913 ft 469 kts 167°
2026-05-04 22:46 1.70455 -65.87937 32919 ft 469 kts 167°
2026-05-04 22:47 1.64060 -65.86674 32923 ft 470 kts 167°
2026-05-04 22:47 1.57669 -65.85414 32926 ft 470 kts 167°
2026-05-04 22:48 1.51233 -65.84144 32930 ft 470 kts 168°
2026-05-04 22:48 1.45924 -65.83097 32931 ft 470 kts 168°
2026-05-04 22:49 1.39493 -65.81828 32933 ft 470 kts 168°
2026-05-04 22:49 1.33056 -65.80558 32938 ft 470 kts 168°
2026-05-04 22:50 1.26665 -65.79297 32935 ft 469 kts 168°
2026-05-04 22:50 1.20285 -65.78039 32945 ft 469 kts 168°
2026-05-04 22:51 1.13846 -65.76769 32946 ft 469 kts 168°
2026-05-04 22:51 1.07455 -65.75509 32950 ft 469 kts 168°
2026-05-04 22:52 1.01076 -65.74250 32952 ft 469 kts 167°
2026-05-04 22:52 0.94715 -65.72891 32953 ft 468 kts 167°
2026-05-04 22:53 0.88324 -65.71527 32949 ft 468 kts 167°
2026-05-04 22:53 0.81973 -65.70174 32955 ft 468 kts 167°
2026-05-04 22:54 0.75593 -65.68809 32952 ft 468 kts 167°
2026-05-04 22:54 0.69243 -65.67451 32950 ft 467 kts 167°
2026-05-04 22:55 0.62889 -65.66092 32949 ft 467 kts 167°
2026-05-04 22:55 0.56557 -65.64738 32943 ft 467 kts 167°
2026-05-04 22:56 0.50194 -65.63377 32939 ft 467 kts 167°
2026-05-04 22:56 0.43845 -65.62019 32939 ft 467 kts 167°
2026-05-04 22:57 0.37478 -65.60658 32935 ft 466 kts 167°
2026-05-04 22:57 0.31155 -65.59306 32932 ft 466 kts 167°
2026-05-04 22:58 0.24795 -65.57946 32926 ft 466 kts 167°
2026-05-04 22:58 0.18435 -65.56585 32923 ft 466 kts 167°
2026-05-04 22:59 0.12113 -65.55234 32920 ft 466 kts 167°
2026-05-04 22:59 0.05770 -65.53877 32923 ft 466 kts 167°
2026-05-04 23:00 -0.00551 -65.52526 32922 ft 466 kts 167°
2026-05-04 23:00 -0.06878 -65.51172 32919 ft 466 kts 167°
2026-05-04 23:01 -0.13230 -65.49814 32928 ft 465 kts 167°
2026-05-04 23:01 -0.19548 -65.48463 32925 ft 465 kts 167°
2026-05-04 23:02 -0.25899 -65.47105 32926 ft 465 kts 167°
2026-05-04 23:02 -0.32210 -65.45755 32920 ft 465 kts 167°
2026-05-04 23:03 -0.38529 -65.44404 32922 ft 465 kts 167°
2026-05-04 23:03 -0.44838 -65.43055 32923 ft 465 kts 167°
2026-05-04 23:04 -0.51183 -65.41698 32921 ft 465 kts 167°
2026-05-04 23:04 -0.57528 -65.40342 32927 ft 465 kts 167°
2026-05-04 23:05 -0.63862 -65.38989 32928 ft 465 kts 167°
2026-05-04 23:05 -0.70160 -65.37644 32921 ft 465 kts 167°
2026-05-04 23:06 -0.76522 -65.36284 32921 ft 465 kts 167°
2026-05-04 23:06 -0.82838 -65.34935 32923 ft 465 kts 166°
2026-05-04 23:07 -0.89143 -65.33403 32928 ft 465 kts 165°
2026-05-04 23:07 -0.95424 -65.31877 32927 ft 466 kts 165°
2026-05-04 23:08 -1.01707 -65.30353 32923 ft 466 kts 165°
2026-05-04 23:08 -1.08043 -65.28818 32924 ft 466 kts 165°
2026-05-04 23:09 -1.14353 -65.27288 32923 ft 466 kts 165°
2026-05-04 23:09 -1.20641 -65.25763 32928 ft 466 kts 165°
2026-05-04 23:10 -1.26925 -65.24240 32928 ft 466 kts 165°
2026-05-04 23:10 -1.33234 -65.22710 32930 ft 467 kts 165°
2026-05-04 23:11 -1.39572 -65.21173 32931 ft 466 kts 165°
2026-05-04 23:11 -1.45900 -65.19639 32932 ft 466 kts 165°
2026-05-04 23:12 -1.52185 -65.18114 32930 ft 467 kts 165°
2026-05-04 23:12 -1.58482 -65.16587 32929 ft 467 kts 165°
2026-05-04 23:13 -1.64802 -65.15054 32928 ft 467 kts 165°
2026-05-04 23:13 -1.71086 -65.13530 32931 ft 467 kts 165°
2026-05-04 23:14 -1.77422 -65.11993 32928 ft 467 kts 165°
2026-05-04 23:14 -1.83750 -65.10458 32934 ft 467 kts 165°
2026-05-04 23:15 -1.90060 -65.08927 32929 ft 467 kts 165°
2026-05-04 23:15 -1.96340 -65.07404 32929 ft 467 kts 165°
2026-05-04 23:16 -2.02692 -65.05863 32931 ft 467 kts 165°
2026-05-04 23:16 -2.08995 -65.04333 32931 ft 467 kts 165°
2026-05-04 23:17 -2.15288 -65.02806 32926 ft 468 kts 165°
2026-05-04 23:17 -2.21640 -65.01265 32930 ft 468 kts 165°
2026-05-04 23:18 -2.27945 -64.99734 32929 ft 468 kts 165°
2026-05-04 23:18 -2.34249 -64.98204 32926 ft 467 kts 165°
2026-05-04 23:19 -2.40593 -64.96664 32931 ft 468 kts 165°
2026-05-04 23:19 -2.46927 -64.95125 32925 ft 468 kts 165°
2026-05-04 23:20 -2.53238 -64.93593 32927 ft 468 kts 165°
2026-05-04 23:20 -2.59583 -64.92052 32929 ft 468 kts 165°
2026-05-04 23:21 -2.65900 -64.90518 32924 ft 468 kts 165°
2026-05-04 23:21 -2.72259 -64.88974 32931 ft 468 kts 165°
2026-05-04 23:22 -2.78572 -64.87440 32928 ft 469 kts 165°
2026-05-04 23:22 -2.84883 -64.85907 32926 ft 469 kts 165°
2026-05-04 23:23 -2.91255 -64.84359 32924 ft 469 kts 165°
2026-05-04 23:23 -2.97585 -64.82821 32932 ft 469 kts 165°
2026-05-04 23:24 -3.03934 -64.81278 32926 ft 469 kts 165°
2026-05-04 23:24 -3.10275 -64.79737 32930 ft 469 kts 165°
2026-05-04 23:25 -3.16595 -64.78200 32923 ft 469 kts 165°
2026-05-04 23:25 -3.22949 -64.76655 32917 ft 470 kts 165°
2026-05-04 23:26 -3.29291 -64.75113 32913 ft 469 kts 165°
2026-05-04 23:26 -3.35615 -64.73576 32907 ft 470 kts 165°
2026-05-04 23:27 -3.42001 -64.72010 32911 ft 470 kts 165°
2026-05-04 23:27 -3.48338 -64.70452 32917 ft 470 kts 165°
2026-05-04 23:28 -3.54655 -64.68898 32914 ft 470 kts 165°
2026-05-04 23:28 -3.61001 -64.67338 32924 ft 470 kts 165°
2026-05-04 23:29 -3.67378 -64.65769 32928 ft 470 kts 165°
2026-05-04 23:29 -3.73731 -64.64206 32935 ft 470 kts 165°
2026-05-04 23:30 -3.80069 -64.62647 32943 ft 470 kts 165°
2026-05-04 23:30 -3.86403 -64.61088 32939 ft 470 kts 165°
2026-05-04 23:31 -3.92773 -64.59521 32937 ft 470 kts 165°
2026-05-04 23:31 -3.99116 -64.57959 32937 ft 470 kts 165°
2026-05-04 23:32 -4.05479 -64.56393 32937 ft 470 kts 165°
2026-05-04 23:32 -4.11814 -64.54833 32934 ft 470 kts 165°
2026-05-04 23:33 -4.18186 -64.53264 32937 ft 471 kts 165°
2026-05-04 23:33 -4.24562 -64.51694 32942 ft 471 kts 165°
2026-05-04 23:34 -4.30894 -64.50134 32934 ft 470 kts 165°
2026-05-04 23:34 -4.37242 -64.48569 32944 ft 471 kts 165°
2026-05-04 23:35 -4.42548 -64.47260 32937 ft 471 kts 165°
2026-05-04 23:35 -4.49962 -64.45431 32932 ft 471 kts 165°
2026-05-04 23:36 -4.56312 -64.43865 32940 ft 471 kts 165°
2026-05-04 23:36 -4.61627 -64.42553 32938 ft 471 kts 165°
2026-05-04 23:37 -4.67975 -64.40986 32944 ft 471 kts 165°
2026-05-04 23:37 -4.74374 -64.39406 32944 ft 471 kts 165°
2026-05-04 23:38 -4.80723 -64.37839 32946 ft 471 kts 165°
2026-05-04 23:38 -4.87089 -64.36267 33111 ft 472 kts 165°
2026-05-04 23:39 -4.90251 -64.35486 33379 ft 471 kts 165°
2026-05-04 23:39 -4.93445 -64.34697 33627 ft 471 kts 165°
2026-05-04 23:39 -4.96638 -64.33908 33880 ft 471 kts 165°
2026-05-04 23:39 -4.99792 -64.33129 34090 ft 470 kts 165°
2026-05-04 23:40 -5.02982 -64.32340 34301 ft 470 kts 165°
2026-05-04 23:40 -5.06169 -64.31553 34519 ft 469 kts 165°
2026-05-04 23:40 -5.09310 -64.30776 34710 ft 469 kts 165°
2026-05-04 23:40 -5.12484 -64.29992 34910 ft 469 kts 165°
2026-05-04 23:41 -5.15657 -64.29208 35108 ft 468 kts 165°
2026-05-04 23:41 -5.18788 -64.28434 35308 ft 467 kts 165°
2026-05-04 23:41 -5.21954 -64.27651 35530 ft 467 kts 165°
2026-05-04 23:41 -5.25113 -64.26870 35743 ft 466 kts 165°
2026-05-04 23:42 -5.28253 -64.26094 35942 ft 465 kts 165°
2026-05-04 23:42 -5.31367 -64.25323 36155 ft 464 kts 165°
2026-05-04 23:42 -5.34504 -64.24548 36368 ft 463 kts 165°
2026-05-04 23:42 -5.37645 -64.23772 36549 ft 462 kts 165°
2026-05-04 23:43 -5.40779 -64.22997 36751 ft 461 kts 165°
2026-05-04 23:43 -5.43866 -64.22233 36917 ft 460 kts 165°
2026-05-04 23:43 -5.50066 -64.20700 36954 ft 459 kts 165°
2026-05-04 23:44 -5.56292 -64.19160 36950 ft 459 kts 165°
2026-05-04 23:44 -5.62484 -64.17628 36953 ft 460 kts 165°
2026-05-04 23:45 -5.68679 -64.16095 36953 ft 460 kts 165°
2026-05-04 23:45 -5.74930 -64.14548 36956 ft 460 kts 165°
2026-05-04 23:46 -5.81126 -64.13013 36956 ft 460 kts 165°
2026-05-04 23:46 -5.87348 -64.11473 36949 ft 460 kts 165°
2026-05-04 23:47 -5.93556 -64.09936 36952 ft 460 kts 165°
2026-05-04 23:47 -5.99746 -64.08402 36956 ft 460 kts 165°
2026-05-04 23:48 -6.05939 -64.06867 36955 ft 460 kts 165°
2026-05-04 23:48 -6.12171 -64.05323 36956 ft 460 kts 165°
2026-05-04 23:49 -6.18356 -64.03789 36956 ft 460 kts 165°
2026-05-04 23:49 -6.24562 -64.02250 36960 ft 460 kts 165°
2026-05-04 23:50 -6.30775 -64.00709 36958 ft 461 kts 165°
2026-05-04 23:50 -6.36997 -63.99165 36961 ft 461 kts 165°
2026-05-04 23:51 -6.43265 -63.97610 36957 ft 462 kts 165°
2026-05-04 23:51 -6.49537 -63.96271 36964 ft 462 kts 168°
2026-05-04 23:52 -6.55851 -63.94968 36963 ft 462 kts 168°
2026-05-04 23:52 -6.62131 -63.93664 36959 ft 462 kts 168°
2026-05-04 23:53 -6.68401 -63.92361 36956 ft 462 kts 168°
2026-05-04 23:53 -6.74735 -63.91045 36962 ft 462 kts 168°
2026-05-04 23:54 -6.81007 -63.89741 36960 ft 462 kts 168°
2026-05-04 23:54 -6.87286 -63.88436 36959 ft 462 kts 168°
2026-05-04 23:55 -6.93618 -63.87118 36958 ft 462 kts 168°
2026-05-04 23:56 -7.03063 -63.85154 36962 ft 462 kts 168°
2026-05-04 23:56 -7.09343 -63.83847 36961 ft 462 kts 168°
2026-05-04 23:57 -7.15617 -63.82541 36961 ft 461 kts 168°
2026-05-04 23:57 -7.21925 -63.81227 36960 ft 461 kts 168°
2026-05-04 23:58 -7.28207 -63.79920 36966 ft 461 kts 168°
2026-05-04 23:58 -7.34478 -63.78620 36964 ft 462 kts 168°
2026-05-04 23:59 -7.40770 -63.77317 36955 ft 463 kts 168°
2026-05-04 23:59 -7.47101 -63.76003 36960 ft 463 kts 168°
2026-05-05 00:00 -7.53390 -63.74699 36963 ft 463 kts 168°
2026-05-05 00:00 -7.59690 -63.73392 36956 ft 464 kts 168°
2026-05-05 00:01 -7.66011 -63.72080 36963 ft 464 kts 168°
2026-05-05 00:01 -7.72337 -63.70767 36962 ft 464 kts 168°
2026-05-05 00:02 -7.78695 -63.69446 36964 ft 464 kts 168°
2026-05-05 00:02 -7.85013 -63.68134 36960 ft 465 kts 168°
2026-05-05 00:03 -7.91315 -63.66824 36960 ft 465 kts 168°
2026-05-05 00:03 -7.97673 -63.65502 36962 ft 465 kts 168°
2026-05-05 00:04 -8.03988 -63.64189 36963 ft 465 kts 168°
2026-05-05 00:04 -8.10307 -63.62875 36963 ft 465 kts 168°
2026-05-05 00:05 -8.16675 -63.61550 36963 ft 464 kts 168°
2026-05-05 00:05 -8.22982 -63.60237 36961 ft 465 kts 168°
2026-05-05 00:06 -8.29296 -63.58922 36965 ft 465 kts 168°
2026-05-05 00:06 -8.35665 -63.57596 36961 ft 465 kts 168°
2026-05-05 00:07 -8.41982 -63.56280 36957 ft 465 kts 168°
2026-05-05 00:07 -8.48340 -63.54955 36962 ft 465 kts 168°
2026-05-05 00:08 -8.54655 -63.53638 36957 ft 465 kts 168°
2026-05-05 00:09 -8.67302 -63.50999 36961 ft 466 kts 168°
2026-05-05 00:09 -8.73638 -63.49677 36958 ft 466 kts 168°
2026-05-05 00:10 -8.79990 -63.48351 36963 ft 465 kts 168°
2026-05-05 00:10 -8.86359 -63.47021 36955 ft 465 kts 168°
2026-05-05 00:11 -8.92691 -63.45697 36956 ft 465 kts 168°
2026-05-05 00:11 -8.99013 -63.44376 36964 ft 465 kts 168°
2026-05-05 00:12 -9.05346 -63.43052 36961 ft 465 kts 168°
2026-05-05 00:12 -9.11676 -63.41728 36957 ft 465 kts 168°
2026-05-05 00:13 -9.18023 -63.40399 36959 ft 465 kts 168°
2026-05-05 00:13 -9.24377 -63.39070 36957 ft 465 kts 168°
2026-05-05 00:14 -9.30677 -63.37750 36957 ft 464 kts 168°
2026-05-05 00:14 -9.36990 -63.36428 36961 ft 464 kts 168°
2026-05-05 00:15 -9.43333 -63.35099 36956 ft 464 kts 168°
2026-05-05 00:15 -9.49638 -63.33777 36956 ft 464 kts 168°
2026-05-05 00:16 -9.55956 -63.32452 36963 ft 464 kts 168°
2026-05-05 00:16 -9.62307 -63.31120 36958 ft 464 kts 168°
2026-05-05 00:17 -9.68607 -63.29798 36963 ft 464 kts 168°
2026-05-05 00:17 -9.74923 -63.28472 36963 ft 464 kts 169°
2026-05-05 00:18 -9.81258 -63.27142 36961 ft 464 kts 168°
2026-05-05 00:18 -9.87560 -63.25817 36955 ft 465 kts 169°
2026-05-05 00:19 -9.93921 -63.24481 36959 ft 465 kts 169°
2026-05-05 00:19 -10.00241 -63.23152 36957 ft 466 kts 169°
2026-05-05 00:20 -10.06611 -63.21812 36956 ft 466 kts 169°
2026-05-05 00:20 -10.12962 -63.20476 36961 ft 467 kts 169°
2026-05-05 00:21 -10.19305 -63.19140 36964 ft 467 kts 169°
2026-05-05 00:21 -10.25670 -63.17800 36967 ft 467 kts 169°
2026-05-05 00:22 -10.32076 -63.16450 36957 ft 468 kts 169°
2026-05-05 00:22 -10.38426 -63.15111 36957 ft 468 kts 169°
2026-05-05 00:23 -10.44803 -63.13767 36965 ft 468 kts 169°
2026-05-05 00:23 -10.51173 -63.12423 36960 ft 469 kts 169°
2026-05-05 00:24 -10.57546 -63.11079 36966 ft 468 kts 169°
2026-05-05 00:24 -10.63952 -63.09726 36965 ft 468 kts 169°
2026-05-05 00:25 -10.70313 -63.08383 36962 ft 468 kts 169°
2026-05-05 00:25 -10.76669 -63.07039 36958 ft 468 kts 169°
2026-05-05 00:26 -10.81984 -63.05916 36960 ft 468 kts 169°
2026-05-05 00:26 -10.88374 -63.04564 36962 ft 468 kts 169°
2026-05-05 00:27 -10.94721 -63.03222 36957 ft 467 kts 169°
2026-05-05 00:27 -11.02128 -63.01654 36954 ft 466 kts 169°
2026-05-05 00:28 -11.07417 -63.00534 36963 ft 466 kts 169°
2026-05-05 00:28 -11.13741 -62.99194 36958 ft 465 kts 169°
2026-05-05 00:29 -11.20063 -62.97855 36957 ft 464 kts 170°
2026-05-05 00:29 -11.26418 -62.96507 36964 ft 464 kts 169°
2026-05-05 00:30 -11.32723 -62.95170 36958 ft 464 kts 169°
2026-05-05 00:30 -11.39037 -62.93831 36963 ft 463 kts 169°
2026-05-05 00:31 -11.45328 -62.92495 36954 ft 463 kts 169°
2026-05-05 00:31 -11.51643 -62.91152 36953 ft 462 kts 169°
2026-05-05 00:32 -11.57927 -62.89814 36950 ft 462 kts 169°
2026-05-05 00:32 -11.64202 -62.88479 36950 ft 462 kts 169°
2026-05-05 00:33 -11.70505 -62.87136 36953 ft 462 kts 170°
2026-05-05 00:33 -11.76782 -62.85799 36951 ft 461 kts 170°
2026-05-05 00:34 -11.83074 -62.84457 36954 ft 461 kts 170°
2026-05-05 00:34 -11.89359 -62.83117 36947 ft 461 kts 170°
2026-05-05 00:35 -11.95610 -62.81783 36944 ft 460 kts 170°
2026-05-05 00:35 -12.01912 -62.80437 36949 ft 460 kts 170°
2026-05-05 00:36 -12.08154 -62.79104 36952 ft 460 kts 170°
2026-05-05 00:36 -12.14451 -62.77759 36952 ft 460 kts 170°
2026-05-05 00:37 -12.20690 -62.76425 36949 ft 459 kts 170°
2026-05-05 00:37 -12.26914 -62.75094 36952 ft 459 kts 169°
2026-05-05 00:38 -12.33181 -62.73752 36949 ft 459 kts 169°
2026-05-05 00:38 -12.39424 -62.72416 36945 ft 458 kts 169°
2026-05-05 00:39 -12.45684 -62.71075 36953 ft 458 kts 169°
2026-05-05 00:39 -12.51910 -62.69774 36946 ft 457 kts 174°
2026-05-05 00:40 -12.58238 -62.68933 36950 ft 457 kts 174°
2026-05-05 00:40 -12.64491 -62.68049 36955 ft 456 kts 173°
2026-05-05 00:41 -12.70776 -62.67148 36957 ft 457 kts 173°
2026-05-05 00:41 -12.77088 -62.66243 36953 ft 457 kts 173°
2026-05-05 00:42 -12.83367 -62.65342 36953 ft 457 kts 173°
2026-05-05 00:42 -12.89691 -62.64433 36953 ft 457 kts 173°
2026-05-05 00:43 -12.95980 -62.63530 36955 ft 457 kts 174°
2026-05-05 00:43 -13.02291 -62.62623 36945 ft 457 kts 174°
2026-05-05 00:44 -13.08493 -62.61237 36958 ft 459 kts 168°
2026-05-05 00:44 -13.14707 -62.59758 36953 ft 459 kts 169°
2026-05-05 00:45 -13.20917 -62.58309 36953 ft 459 kts 169°
2026-05-05 00:45 -13.27133 -62.56860 36954 ft 459 kts 169°
2026-05-05 00:46 -13.33365 -62.55407 36951 ft 460 kts 169°
2026-05-05 00:46 -13.39622 -62.53948 36951 ft 460 kts 169°
2026-05-05 00:47 -13.45841 -62.52496 36950 ft 460 kts 169°
2026-05-05 00:47 -13.52102 -62.51034 36963 ft 460 kts 169°
2026-05-05 00:48 -13.58326 -62.49579 36955 ft 460 kts 169°
2026-05-05 00:48 -13.64581 -62.48117 36956 ft 461 kts 169°
2026-05-05 00:49 -13.70813 -62.46659 36961 ft 461 kts 169°
2026-05-05 00:49 -13.77086 -62.45190 36954 ft 461 kts 169°
2026-05-05 00:50 -13.83317 -62.43728 36959 ft 461 kts 169°
2026-05-05 00:50 -13.89564 -62.42262 36958 ft 460 kts 169°
2026-05-05 00:51 -13.95791 -62.40799 36959 ft 460 kts 169°
2026-05-05 00:51 -14.02061 -62.39326 36958 ft 460 kts 169°
2026-05-05 00:52 -14.08278 -62.37864 36964 ft 460 kts 169°
2026-05-05 00:52 -14.14521 -62.36396 36958 ft 460 kts 169°
2026-05-05 00:53 -14.20737 -62.34932 36958 ft 460 kts 169°
2026-05-05 00:53 -14.26976 -62.33463 36957 ft 460 kts 169°
2026-05-05 00:54 -14.33238 -62.31987 36957 ft 460 kts 169°
2026-05-05 00:54 -14.39456 -62.30521 36960 ft 460 kts 169°
2026-05-05 00:55 -14.45711 -62.29045 36965 ft 460 kts 169°
2026-05-05 00:55 -14.51925 -62.27578 36960 ft 460 kts 169°
2026-05-05 00:56 -14.58183 -62.26100 36963 ft 460 kts 169°
2026-05-05 00:56 -14.64419 -62.24627 36967 ft 460 kts 169°
2026-05-05 00:57 -14.70647 -62.23154 36964 ft 460 kts 169°
2026-05-05 00:57 -14.76896 -62.21676 36968 ft 460 kts 169°
2026-05-05 00:58 -14.83132 -62.20199 36964 ft 460 kts 169°
2026-05-05 00:58 -14.89361 -62.18724 36965 ft 461 kts 169°
2026-05-05 00:59 -14.95614 -62.17241 36969 ft 461 kts 169°
2026-05-05 00:59 -15.01846 -62.15763 36967 ft 461 kts 169°
2026-05-05 01:00 -15.08106 -62.14278 36969 ft 461 kts 169°
2026-05-05 01:00 -15.14344 -62.12817 36968 ft 461 kts 169°
2026-05-05 01:01 -15.20619 -62.11347 36968 ft 461 kts 169°
2026-05-05 01:01 -15.26845 -62.09888 36966 ft 461 kts 169°
2026-05-05 01:02 -15.33120 -62.08416 36973 ft 461 kts 169°
2026-05-05 01:02 -15.39347 -62.06954 36966 ft 461 kts 169°
2026-05-05 01:03 -15.45631 -62.05479 36970 ft 461 kts 169°
2026-05-05 01:03 -15.51873 -62.04012 36975 ft 461 kts 169°
2026-05-05 01:04 -15.58100 -62.02547 36976 ft 461 kts 169°
2026-05-05 01:04 -15.67472 -62.00342 36979 ft 461 kts 169°
2026-05-05 01:05 -15.73736 -61.98867 36983 ft 461 kts 169°
2026-05-05 01:05 -15.79990 -61.97393 36982 ft 461 kts 169°
2026-05-05 01:06 -15.86225 -61.95923 36984 ft 461 kts 169°
2026-05-05 01:06 -15.92496 -61.94443 36987 ft 461 kts 169°
2026-05-05 01:07 -15.98727 -61.92972 36990 ft 460 kts 169°
2026-05-05 01:07 -16.04985 -61.91493 36989 ft 460 kts 169°
2026-05-05 01:08 -16.11241 -61.90014 36988 ft 460 kts 169°
2026-05-05 01:08 -16.17477 -61.88539 36988 ft 461 kts 169°
2026-05-05 01:09 -16.23713 -61.87063 36988 ft 461 kts 169°
2026-05-05 01:09 -16.29990 -61.85576 36986 ft 461 kts 169°
2026-05-05 01:10 -16.36218 -61.84100 36989 ft 461 kts 170°
2026-05-05 01:10 -16.42492 -61.82611 36986 ft 461 kts 170°
2026-05-05 01:11 -16.48706 -61.81137 36983 ft 461 kts 170°
2026-05-05 01:11 -16.54996 -61.79651 36980 ft 461 kts 170°
2026-05-05 01:12 -16.61268 -61.78185 36981 ft 462 kts 170°
2026-05-05 01:12 -16.67517 -61.76722 36975 ft 462 kts 170°
2026-05-05 01:13 -16.73760 -61.75259 36977 ft 462 kts 170°
2026-05-05 01:13 -16.80079 -61.73777 36974 ft 462 kts 170°
2026-05-05 01:14 -16.86318 -61.72314 36968 ft 462 kts 170°
2026-05-05 01:14 -16.92610 -61.70836 36969 ft 462 kts 170°
2026-05-05 01:15 -16.98844 -61.69372 36962 ft 462 kts 171°
2026-05-05 01:15 -17.05139 -61.67892 36960 ft 462 kts 171°
2026-05-05 01:16 -17.11391 -61.66421 36958 ft 462 kts 171°
2026-05-05 01:16 -17.16621 -61.65190 36955 ft 462 kts 171°
2026-05-05 01:17 -17.22914 -61.63707 36953 ft 462 kts 171°
2026-05-05 01:17 -17.29152 -61.62237 36954 ft 462 kts 171°
2026-05-05 01:18 -17.35411 -61.60761 36951 ft 462 kts 171°
2026-05-05 01:18 -17.41702 -61.59275 36949 ft 462 kts 171°
2026-05-05 01:19 -17.47979 -61.57793 36947 ft 462 kts 171°
2026-05-05 01:19 -17.54232 -61.56314 36942 ft 462 kts 171°
2026-05-05 01:20 -17.60528 -61.54825 36944 ft 462 kts 171°
2026-05-05 01:20 -17.66779 -61.53346 36945 ft 462 kts 171°
2026-05-05 01:21 -17.73061 -61.51857 36942 ft 462 kts 171°
2026-05-05 01:21 -17.79325 -61.50372 36942 ft 462 kts 171°
2026-05-05 01:22 -17.85610 -61.48881 36941 ft 463 kts 171°
2026-05-05 01:22 -17.91878 -61.47393 36938 ft 463 kts 171°
2026-05-05 01:23 -17.98176 -61.45897 36939 ft 463 kts 171°
2026-05-05 01:23 -18.04426 -61.44411 36935 ft 462 kts 171°
2026-05-05 01:24 -18.10690 -61.42927 36937 ft 463 kts 171°
2026-05-05 01:24 -18.16988 -61.41442 36936 ft 462 kts 172°
2026-05-05 01:25 -18.23263 -61.39961 36940 ft 462 kts 172°
2026-05-05 01:25 -18.29549 -61.38476 36935 ft 462 kts 172°
2026-05-05 01:26 -18.35817 -61.37000 36935 ft 462 kts 172°
2026-05-05 01:26 -18.42066 -61.35537 36934 ft 462 kts 172°
2026-05-05 01:27 -18.48373 -61.34059 36934 ft 462 kts 172°
2026-05-05 01:27 -18.54621 -61.32594 36934 ft 462 kts 172°
2026-05-05 01:28 -18.60882 -61.31124 36931 ft 461 kts 172°
2026-05-05 01:28 -18.67164 -61.29649 36936 ft 461 kts 172°
2026-05-05 01:29 -18.73416 -61.28179 36936 ft 461 kts 172°
2026-05-05 01:29 -18.79690 -61.26704 36932 ft 461 kts 172°
2026-05-05 01:30 -18.85955 -61.25228 36930 ft 461 kts 172°
2026-05-05 01:30 -18.92179 -61.23762 36933 ft 460 kts 172°
2026-05-05 01:31 -18.98445 -61.22285 36930 ft 460 kts 173°
2026-05-05 01:31 -19.04662 -61.20818 36936 ft 460 kts 173°
2026-05-05 01:32 -19.10909 -61.19343 36933 ft 460 kts 173°
2026-05-05 01:32 -19.17175 -61.17862 36933 ft 459 kts 173°
2026-05-05 01:33 -19.23388 -61.16392 36932 ft 459 kts 173°
2026-05-05 01:33 -19.29642 -61.14912 36928 ft 459 kts 173°
2026-05-05 01:34 -19.35844 -61.13443 36929 ft 459 kts 173°
2026-05-05 01:34 -19.42087 -61.11963 36926 ft 458 kts 173°
2026-05-05 01:35 -19.48277 -61.10494 36923 ft 458 kts 173°
2026-05-05 01:35 -19.54531 -61.08986 36925 ft 459 kts 172°
2026-05-05 01:36 -19.60735 -61.07451 36920 ft 458 kts 172°
2026-05-05 01:36 -19.66963 -61.05914 36926 ft 458 kts 173°
2026-05-05 01:37 -19.73148 -61.04386 36920 ft 458 kts 173°
2026-05-05 01:37 -19.79381 -61.02845 36923 ft 459 kts 173°
2026-05-05 01:38 -19.85571 -61.01314 36919 ft 459 kts 173°
2026-05-05 01:38 -19.91762 -60.99781 36922 ft 459 kts 173°
2026-05-05 01:39 -19.98007 -60.98233 36919 ft 459 kts 173°
2026-05-05 01:39 -20.04201 -60.96697 36921 ft 459 kts 173°
2026-05-05 01:40 -20.10403 -60.95158 36917 ft 459 kts 173°
2026-05-05 01:40 -20.16643 -60.93607 36917 ft 459 kts 173°
2026-05-05 01:41 -20.22839 -60.92067 36917 ft 459 kts 173°
2026-05-05 01:41 -20.29073 -60.90516 36921 ft 459 kts 173°
2026-05-05 01:42 -20.35282 -60.88970 36924 ft 459 kts 173°
2026-05-05 01:42 -20.41484 -60.87424 36926 ft 459 kts 173°
2026-05-05 01:43 -20.47723 -60.85868 36914 ft 458 kts 173°
2026-05-05 01:43 -20.53921 -60.84320 36917 ft 458 kts 173°
2026-05-05 01:44 -20.60113 -60.82773 36917 ft 458 kts 173°
2026-05-05 01:44 -20.66337 -60.81217 36912 ft 458 kts 173°
2026-05-05 01:45 -20.72499 -60.79674 36913 ft 457 kts 173°
2026-05-05 01:45 -20.78727 -60.78114 36913 ft 457 kts 173°
2026-05-05 01:46 -20.84903 -60.76566 36915 ft 457 kts 173°
2026-05-05 01:46 -20.91074 -60.75018 36912 ft 456 kts 173°
2026-05-05 01:47 -20.97263 -60.73464 36915 ft 456 kts 173°
2026-05-05 01:47 -21.03419 -60.71917 36912 ft 456 kts 173°
2026-05-05 01:48 -21.09591 -60.70378 36909 ft 455 kts 173°
2026-05-05 01:48 -21.15773 -60.68850 36910 ft 455 kts 173°
2026-05-05 01:49 -21.21934 -60.67325 36912 ft 455 kts 173°
2026-05-05 01:49 -21.28084 -60.65801 36913 ft 455 kts 174°
2026-05-05 01:50 -21.34269 -60.64267 36912 ft 455 kts 174°
2026-05-05 01:50 -21.40425 -60.62739 36913 ft 455 kts 174°
2026-05-05 01:51 -21.46612 -60.61202 36913 ft 455 kts 174°
2026-05-05 01:51 -21.52766 -60.59672 36916 ft 455 kts 174°
2026-05-05 01:52 -21.58910 -60.58143 36917 ft 455 kts 174°
2026-05-05 01:52 -21.65097 -60.56603 36919 ft 454 kts 174°
2026-05-05 01:53 -21.71238 -60.55072 36917 ft 454 kts 174°
2026-05-05 01:53 -21.77373 -60.53541 36918 ft 454 kts 174°
2026-05-05 01:54 -21.83520 -60.52006 36919 ft 454 kts 174°
2026-05-05 01:54 -21.89692 -60.50463 36918 ft 454 kts 174°
2026-05-05 01:55 -21.94813 -60.49183 36919 ft 453 kts 174°
2026-05-05 01:55 -22.01983 -60.47388 36920 ft 453 kts 174°
2026-05-05 01:56 -22.08124 -60.45849 36923 ft 453 kts 174°
2026-05-05 01:56 -22.14235 -60.44316 36914 ft 452 kts 174°
2026-05-05 01:57 -22.20385 -60.42772 36922 ft 452 kts 174°
2026-05-05 01:57 -22.26490 -60.41226 36921 ft 452 kts 174°
2026-05-05 01:58 -22.32630 -60.39640 36916 ft 452 kts 174°
2026-05-05 01:58 -22.38733 -60.38066 36923 ft 452 kts 174°
2026-05-05 01:59 -22.44828 -60.36492 36919 ft 452 kts 174°
2026-05-05 01:59 -22.49921 -60.35176 36929 ft 452 kts 174°
2026-05-05 02:00 -22.57069 -60.33327 36922 ft 452 kts 174°
2026-05-05 02:00 -22.63164 -60.31749 36924 ft 452 kts 174°
2026-05-05 02:01 -22.68266 -60.30427 36926 ft 451 kts 174°
2026-05-05 02:01 -22.75393 -60.28579 36926 ft 451 kts 174°
2026-05-05 02:02 -22.80461 -60.27263 36928 ft 451 kts 174°
2026-05-05 02:02 -22.87572 -60.25416 36930 ft 451 kts 174°
2026-05-05 02:03 -22.92651 -60.24095 36929 ft 451 kts 174°
2026-05-05 02:03 -22.98781 -60.22520 36928 ft 450 kts 175°
2026-05-05 02:04 -23.04869 -60.20972 37088 ft 451 kts 175°
2026-05-05 02:04 -23.07944 -60.20189 37321 ft 451 kts 175°
2026-05-05 02:04 -23.11005 -60.19409 37536 ft 450 kts 175°
2026-05-05 02:05 -23.14014 -60.18641 37748 ft 450 kts 175°
2026-05-05 02:05 -23.17063 -60.17864 37955 ft 449 kts 175°
2026-05-05 02:05 -23.20124 -60.17082 38155 ft 448 kts 175°
2026-05-05 02:05 -23.23128 -60.16315 38350 ft 448 kts 175°
2026-05-05 02:06 -23.26172 -60.15538 38536 ft 447 kts 175°
2026-05-05 02:06 -23.29186 -60.14767 38695 ft 446 kts 176°
2026-05-05 02:06 -23.32217 -60.13992 38849 ft 445 kts 176°
2026-05-05 02:06 -23.35240 -60.13219 38929 ft 445 kts 176°
2026-05-05 02:07 -23.41231 -60.11685 38932 ft 443 kts 176°
2026-05-05 02:07 -23.47247 -60.10144 38935 ft 443 kts 176°
2026-05-05 02:08 -23.53273 -60.08598 38936 ft 443 kts 176°
2026-05-05 02:08 -23.59257 -60.07062 38939 ft 443 kts 176°
2026-05-05 02:09 -23.65232 -60.05526 38940 ft 442 kts 176°
2026-05-05 02:09 -23.71209 -60.03989 38941 ft 442 kts 176°
2026-05-05 02:10 -23.77192 -60.02449 38940 ft 442 kts 176°
2026-05-05 02:10 -23.83191 -60.00903 38937 ft 441 kts 176°
2026-05-05 02:11 -23.89156 -59.99364 38941 ft 441 kts 176°
2026-05-05 02:11 -23.95139 -59.97820 38942 ft 441 kts 176°
2026-05-05 02:12 -24.04080 -59.95509 38944 ft 441 kts 176°
2026-05-05 02:13 -24.10027 -59.93980 38941 ft 440 kts 176°
2026-05-05 02:13 -24.15999 -59.92449 38944 ft 440 kts 176°
2026-05-05 02:14 -24.21977 -59.90915 38939 ft 440 kts 176°
2026-05-05 02:14 -24.27914 -59.89389 38941 ft 440 kts 176°
2026-05-05 02:15 -24.33876 -59.87855 38950 ft 440 kts 176°
2026-05-05 02:15 -24.39832 -59.86322 38947 ft 440 kts 176°
2026-05-05 02:16 -24.45788 -59.84787 38955 ft 440 kts 176°
2026-05-05 02:16 -24.51744 -59.83250 38947 ft 440 kts 177°
2026-05-05 02:17 -24.57734 -59.81704 38944 ft 440 kts 176°
2026-05-05 02:17 -24.62697 -59.80421 38944 ft 440 kts 177°
2026-05-05 02:18 -24.69636 -59.78626 38945 ft 439 kts 177°
2026-05-05 02:18 -24.75565 -59.77091 38947 ft 439 kts 177°
2026-05-05 02:19 -24.81513 -59.75548 38944 ft 439 kts 177°
2026-05-05 02:19 -24.87470 -59.74003 38944 ft 439 kts 177°
2026-05-05 02:20 -24.93399 -59.72463 38946 ft 438 kts 177°
2026-05-05 02:20 -24.99329 -59.70922 38949 ft 438 kts 177°
2026-05-05 02:21 -25.05283 -59.69359 38949 ft 438 kts 177°
2026-05-05 02:21 -25.11193 -59.67800 38947 ft 438 kts 177°
2026-05-05 02:22 -25.17142 -59.66230 38945 ft 438 kts 177°
2026-05-05 02:22 -25.23042 -59.64671 38945 ft 438 kts 177°
2026-05-05 02:23 -25.28941 -59.63111 38950 ft 437 kts 177°
2026-05-05 02:23 -25.34889 -59.61536 38947 ft 437 kts 177°
2026-05-05 02:24 -25.40785 -59.59973 38951 ft 437 kts 178°
2026-05-05 02:24 -25.46715 -59.58400 38949 ft 436 kts 178°
2026-05-05 02:25 -25.52599 -59.56837 38949 ft 436 kts 178°
2026-05-05 02:25 -25.58520 -59.55263 38948 ft 436 kts 178°
2026-05-05 02:26 -25.64394 -59.53700 38954 ft 436 kts 178°
2026-05-05 02:26 -25.70263 -59.52137 38952 ft 435 kts 178°
2026-05-05 02:27 -25.76189 -59.50557 38951 ft 435 kts 178°
2026-05-05 02:27 -25.82062 -59.48989 38954 ft 435 kts 178°
2026-05-05 02:28 -25.87920 -59.47424 38953 ft 434 kts 178°
2026-05-05 02:28 -25.93823 -59.45845 38952 ft 434 kts 178°
2026-05-05 02:29 -25.99690 -59.44274 38951 ft 434 kts 178°
2026-05-05 02:29 -26.05547 -59.42704 38953 ft 434 kts 178°
2026-05-05 02:30 -26.11433 -59.41125 38957 ft 434 kts 178°
2026-05-05 02:30 -26.17268 -59.39558 38955 ft 433 kts 178°
2026-05-05 02:31 -26.23121 -59.37983 38957 ft 433 kts 178°
2026-05-05 02:31 -26.29002 -59.36401 38955 ft 433 kts 178°
2026-05-05 02:32 -26.34832 -59.34830 38960 ft 433 kts 178°
2026-05-05 02:32 -26.40710 -59.33246 38962 ft 433 kts 178°
2026-05-05 02:33 -26.46548 -59.31669 38961 ft 433 kts 178°
2026-05-05 02:33 -26.52425 -59.30081 38959 ft 433 kts 178°
2026-05-05 02:34 -26.58254 -59.28506 38958 ft 433 kts 178°
2026-05-05 02:34 -26.64133 -59.26968 38957 ft 432 kts 178°
2026-05-05 02:35 -26.69979 -59.25437 38963 ft 433 kts 178°
2026-05-05 02:35 -26.75827 -59.23902 38962 ft 433 kts 178°
2026-05-05 02:36 -26.81708 -59.22358 38965 ft 433 kts 178°
2026-05-05 02:36 -26.87584 -59.20813 38962 ft 433 kts 178°
2026-05-05 02:37 -26.93429 -59.19275 38966 ft 433 kts 177°
2026-05-05 02:37 -26.99290 -59.17730 38962 ft 433 kts 177°
2026-05-05 02:38 -27.05178 -59.16177 38965 ft 434 kts 177°
2026-05-05 02:38 -27.11032 -59.14631 38964 ft 434 kts 177°
2026-05-05 02:39 -27.16901 -59.13079 38948 ft 434 kts 177°
2026-05-05 02:39 -27.22805 -59.11517 38941 ft 434 kts 177°
2026-05-05 02:40 -27.28670 -59.09963 38929 ft 434 kts 177°
2026-05-05 02:40 -27.34552 -59.08403 38918 ft 435 kts 177°
2026-05-05 02:41 -27.40428 -59.06844 38917 ft 435 kts 177°
2026-05-05 02:41 -27.46323 -59.05601 38912 ft 420 kts 187°
2026-05-05 02:42 -27.52172 -59.05156 38915 ft 423 kts 186°
2026-05-05 02:42 -27.58068 -59.04703 38915 ft 423 kts 186°
2026-05-05 02:43 -27.63917 -59.04261 38927 ft 424 kts 186°
2026-05-05 02:43 -27.69804 -59.03816 38944 ft 424 kts 186°
2026-05-05 02:44 -27.75677 -59.03372 38955 ft 424 kts 186°
2026-05-05 02:44 -27.81568 -59.02926 38967 ft 424 kts 186°
2026-05-05 02:45 -27.87448 -59.02480 38969 ft 424 kts 186°
2026-05-05 02:45 -27.93366 -59.02031 38964 ft 425 kts 186°
2026-05-05 02:46 -27.99269 -59.01582 38964 ft 425 kts 186°
2026-05-05 02:46 -28.05154 -59.01135 38964 ft 425 kts 186°
2026-05-05 02:47 -28.10081 -59.00759 38966 ft 425 kts 186°
2026-05-05 02:47 -28.16976 -59.00234 38968 ft 426 kts 186°
2026-05-05 02:48 -28.22888 -58.99782 38969 ft 426 kts 186°
2026-05-05 02:48 -28.28776 -58.99332 38968 ft 426 kts 186°
2026-05-05 02:49 -28.34681 -58.98881 38966 ft 426 kts 186°
2026-05-05 02:49 -28.40617 -58.98424 38969 ft 426 kts 186°
2026-05-05 02:50 -28.46515 -58.97971 38968 ft 426 kts 186°
2026-05-05 02:50 -28.52454 -58.97514 38965 ft 426 kts 186°
2026-05-05 02:51 -28.58359 -58.97059 38968 ft 426 kts 186°
2026-05-05 02:51 -28.63310 -58.96677 38964 ft 426 kts 186°
2026-05-05 02:52 -28.69218 -58.96220 38965 ft 427 kts 186°
2026-05-05 02:52 -28.75131 -58.95763 38966 ft 427 kts 185°
2026-05-05 02:53 -28.81081 -58.95302 38965 ft 427 kts 186°
2026-05-05 02:53 -28.86987 -58.94844 38966 ft 427 kts 185°
2026-05-05 02:54 -28.92939 -58.94380 38968 ft 427 kts 186°
2026-05-05 02:54 -28.98860 -58.93918 38969 ft 427 kts 186°
2026-05-05 02:55 -29.04780 -58.93456 38968 ft 427 kts 185°
2026-05-05 02:55 -29.10739 -58.92991 38970 ft 427 kts 186°
2026-05-05 02:56 -29.16648 -58.92528 38971 ft 427 kts 185°
2026-05-05 02:56 -29.22612 -58.92060 38968 ft 427 kts 186°
2026-05-05 02:57 -29.28518 -58.91597 38974 ft 428 kts 185°
2026-05-05 02:57 -29.34469 -58.91130 38967 ft 428 kts 185°
2026-05-05 02:58 -29.40394 -58.90664 38967 ft 428 kts 185°
2026-05-05 02:58 -29.46324 -58.90198 38974 ft 428 kts 185°
2026-05-05 02:59 -29.52283 -58.89728 38972 ft 428 kts 185°
2026-05-05 02:59 -29.58205 -58.89261 38972 ft 428 kts 185°
2026-05-05 03:00 -29.64141 -58.88792 38970 ft 428 kts 185°
2026-05-05 03:00 -29.70087 -58.88325 38970 ft 428 kts 185°
2026-05-05 03:01 -29.76034 -58.87859 38971 ft 428 kts 185°
2026-05-05 03:01 -29.81970 -58.87394 38976 ft 428 kts 185°
2026-05-05 03:02 -29.87921 -58.86927 38976 ft 429 kts 185°
2026-05-05 03:02 -29.93859 -58.86461 38973 ft 429 kts 185°
2026-05-05 03:03 -29.99837 -58.85990 38972 ft 429 kts 185°
2026-05-05 03:03 -30.05776 -58.85523 38973 ft 430 kts 185°
2026-05-05 03:04 -30.11745 -58.85052 38975 ft 430 kts 185°
2026-05-05 03:04 -30.17741 -58.84579 38983 ft 430 kts 185°
2026-05-05 03:05 -30.23687 -58.84109 38981 ft 430 kts 185°
2026-05-05 03:05 -30.29668 -58.83636 38977 ft 431 kts 185°
2026-05-05 03:06 -30.35633 -58.83163 38980 ft 431 kts 185°
2026-05-05 03:06 -30.41623 -58.82688 38980 ft 431 kts 185°
2026-05-05 03:07 -30.47627 -58.82211 38981 ft 431 kts 185°
2026-05-05 03:07 -30.53598 -58.81704 38983 ft 432 kts 185°
2026-05-05 03:08 -30.59606 -58.81192 38980 ft 432 kts 185°
2026-05-05 03:08 -30.65595 -58.80682 38987 ft 432 kts 185°
2026-05-05 03:09 -30.71599 -58.80169 38985 ft 433 kts 185°
2026-05-05 03:09 -30.77638 -58.79653 38987 ft 433 kts 185°
2026-05-05 03:10 -30.83627 -58.79141 38983 ft 433 kts 185°
2026-05-05 03:10 -30.89610 -58.78628 38982 ft 433 kts 184°
2026-05-05 03:11 -30.95640 -58.78136 38984 ft 433 kts 185°
2026-05-05 03:11 -31.01647 -58.77662 38985 ft 433 kts 185°
2026-05-05 03:12 -31.07654 -58.77186 38986 ft 433 kts 185°
2026-05-05 03:12 -31.13695 -58.76707 38982 ft 434 kts 185°
2026-05-05 03:13 -31.19701 -58.76229 38984 ft 434 kts 185°
2026-05-05 03:13 -31.25734 -58.75749 38983 ft 434 kts 185°
2026-05-05 03:14 -31.31748 -58.75270 38981 ft 435 kts 185°
2026-05-05 03:14 -31.37780 -58.74789 38980 ft 435 kts 185°
2026-05-05 03:15 -31.43835 -58.74305 38985 ft 435 kts 185°
2026-05-05 03:15 -31.49863 -58.73823 38982 ft 435 kts 185°
2026-05-05 03:16 -31.55903 -58.73340 38979 ft 435 kts 185°
2026-05-05 03:16 -31.61963 -58.72854 38977 ft 435 kts 185°
2026-05-05 03:17 -31.67982 -58.72370 38977 ft 435 kts 185°
2026-05-05 03:17 -31.74011 -58.71886 38977 ft 435 kts 185°
2026-05-05 03:18 -31.80073 -58.71398 38973 ft 436 kts 185°
2026-05-05 03:18 -31.86111 -58.70912 38972 ft 436 kts 185°
2026-05-05 03:19 -31.95177 -58.70179 38972 ft 436 kts 185°
2026-05-05 03:19 -32.01244 -58.69689 38971 ft 436 kts 185°
2026-05-05 03:20 -32.07285 -58.69200 38970 ft 436 kts 185°
2026-05-05 03:20 -32.13339 -58.68709 38970 ft 436 kts 185°
2026-05-05 03:21 -32.19408 -58.68216 38968 ft 436 kts 185°
2026-05-05 03:21 -32.25428 -58.67727 38968 ft 436 kts 185°
2026-05-05 03:22 -32.31473 -58.67235 38963 ft 436 kts 185°
2026-05-05 03:22 -32.37552 -58.66729 38968 ft 436 kts 185°
2026-05-05 03:23 -32.43590 -58.66227 38962 ft 436 kts 185°
2026-05-05 03:23 -32.49630 -58.65724 38963 ft 436 kts 185°
2026-05-05 03:24 -32.55707 -58.65216 38966 ft 436 kts 185°
2026-05-05 03:24 -32.59027 -58.64939 38963 ft 436 kts 185°
2026-05-05 03:25 -32.64003 -58.64523 38965 ft 437 kts 185°
2026-05-05 03:26 -32.70043 -58.64017 38967 ft 437 kts 185°
2026-05-05 03:26 -32.76119 -58.63507 38623 ft 432 kts 185°
2026-05-05 03:27 -32.79100 -58.63257 37803 ft 435 kts 185°
2026-05-05 03:27 -32.82151 -58.63000 37011 ft 438 kts 184°
2026-05-05 03:27 -32.85179 -58.62746 36583 ft 432 kts 184°
2026-05-05 03:27 -32.88124 -58.62498 36201 ft 426 kts 184°
2026-05-05 03:28 -32.91109 -58.62248 35662 ft 430 kts 184°
2026-05-05 03:28 -32.94111 -58.61995 35135 ft 432 kts 184°
2026-05-05 03:28 -32.97114 -58.61742 34648 ft 432 kts 184°
2026-05-05 03:28 -33.00074 -58.61496 34158 ft 429 kts 185°
2026-05-05 03:29 -33.03034 -58.61644 33495 ft 419 kts 194°
2026-05-05 03:29 -33.05930 -58.61994 32973 ft 417 kts 193°
2026-05-05 03:29 -33.08768 -58.62318 32560 ft 412 kts 193°
2026-05-05 03:29 -33.11614 -58.62647 32108 ft 408 kts 193°
2026-05-05 03:30 -33.14435 -58.62974 31630 ft 404 kts 193°
2026-05-05 03:30 -33.17214 -58.63296 31161 ft 402 kts 193°
2026-05-05 03:30 -33.20000 -58.63619 30701 ft 399 kts 193°
2026-05-05 03:30 -33.22747 -58.63937 30249 ft 396 kts 193°
2026-05-05 03:31 -33.25486 -58.64255 29749 ft 394 kts 193°
2026-05-05 03:31 -33.28186 -58.64570 29240 ft 391 kts 193°
2026-05-05 03:31 -33.30890 -58.64884 28793 ft 387 kts 193°
2026-05-05 03:31 -33.33559 -58.65195 28347 ft 383 kts 193°
2026-05-05 03:32 -33.36209 -58.65503 27918 ft 380 kts 193°
2026-05-05 03:32 -33.38861 -58.65812 27461 ft 383 kts 193°
2026-05-05 03:32 -33.41493 -58.66119 27032 ft 382 kts 193°
2026-05-05 03:32 -33.44137 -58.66427 26592 ft 380 kts 193°
2026-05-05 03:33 -33.46771 -58.66734 26160 ft 378 kts 193°
2026-05-05 03:33 -33.49355 -58.67036 25720 ft 376 kts 193°
2026-05-05 03:33 -33.51955 -58.67340 25295 ft 374 kts 193°
2026-05-05 03:33 -33.54544 -58.67643 24865 ft 371 kts 193°
2026-05-05 03:34 -33.57093 -58.67941 24444 ft 369 kts 193°
2026-05-05 03:34 -33.59666 -58.68242 24012 ft 367 kts 193°
2026-05-05 03:34 -33.62181 -58.68536 23602 ft 366 kts 193°
2026-05-05 03:34 -33.64722 -58.68834 23121 ft 364 kts 193°
2026-05-05 03:35 -33.67236 -58.69129 22672 ft 361 kts 193°
2026-05-05 03:35 -33.69703 -58.69418 22259 ft 358 kts 193°
2026-05-05 03:35 -33.72187 -58.69710 21859 ft 354 kts 193°
2026-05-05 03:35 -33.74631 -58.69997 21448 ft 351 kts 193°
2026-05-05 03:36 -33.77021 -58.70278 21063 ft 348 kts 193°
2026-05-05 03:36 -33.79431 -58.70561 20654 ft 345 kts 193°
2026-05-05 03:36 -33.81830 -58.70843 20256 ft 342 kts 193°
2026-05-05 03:36 -33.84162 -58.71118 19867 ft 339 kts 193°
2026-05-05 03:37 -33.86516 -58.71395 19484 ft 337 kts 193°
2026-05-05 03:37 -33.88846 -58.71670 19096 ft 334 kts 193°
2026-05-05 03:37 -33.91129 -58.71939 18715 ft 332 kts 193°
2026-05-05 03:37 -33.93444 -58.72183 18263 ft 333 kts 192°
2026-05-05 03:38 -33.95748 -58.72418 17838 ft 330 kts 192°
2026-05-05 03:38 -33.98030 -58.72652 17441 ft 327 kts 192°
2026-05-05 03:38 -34.00264 -58.72882 17062 ft 323 kts 192°
2026-05-05 03:38 -34.02498 -58.73113 16681 ft 320 kts 191°
2026-05-05 03:39 -34.04706 -58.73342 16305 ft 317 kts 191°
2026-05-05 03:39 -34.06158 -58.73492 16064 ft 314 kts 191°
2026-05-05 03:39 -34.09047 -58.73791 15566 ft 314 kts 191°
2026-05-05 03:39 -34.11233 -58.74018 15195 ft 315 kts 191°
2026-05-05 03:40 -34.13412 -58.74244 14812 ft 316 kts 191°
2026-05-05 03:40 -34.15581 -58.74468 14440 ft 315 kts 191°
2026-05-05 03:40 -34.17765 -58.74695 14078 ft 312 kts 191°
2026-05-05 03:40 -34.19198 -58.74844 13830 ft 311 kts 191°
2026-05-05 03:41 -34.21351 -58.75067 13418 ft 309 kts 190°
2026-05-05 03:41 -34.23480 -58.75289 13013 ft 306 kts 190°
2026-05-05 03:41 -34.25579 -58.75507 12645 ft 303 kts 190°
2026-05-05 03:41 -34.27683 -58.75726 12279 ft 300 kts 190°
2026-05-05 03:42 -34.29737 -58.75940 11922 ft 297 kts 190°
2026-05-05 03:42 -34.31790 -58.76154 11552 ft 295 kts 190°
2026-05-05 03:42 -34.33846 -58.76395 11146 ft 298 kts 190°
2026-05-05 03:42 -34.35917 -58.76641 10769 ft 299 kts 190°
2026-05-05 03:43 -34.37975 -58.76885 10448 ft 298 kts 190°
2026-05-05 03:43 -34.40011 -58.77126 10293 ft 289 kts 190°
2026-05-05 03:43 -34.41989 -58.77361 10129 ft 279 kts 190°
2026-05-05 03:43 -34.43885 -58.77585 9903 ft 276 kts 190°
2026-05-05 03:44 -34.45797 -58.77811 9612 ft 276 kts 189°
2026-05-05 03:44 -34.47713 -58.78038 9314 ft 276 kts 189°
2026-05-05 03:44 -34.49629 -58.78266 8989 ft 277 kts 189°
2026-05-05 03:44 -34.51552 -58.78493 8495 ft 281 kts 189°
2026-05-05 03:45 -34.53512 -58.78726 8054 ft 282 kts 189°
2026-05-05 03:45 -34.55460 -58.78959 7685 ft 281 kts 190°
2026-05-05 03:45 -34.57308 -58.79603 7290 ft 275 kts 208°
2026-05-05 03:45 -34.59034 -58.80549 6968 ft 274 kts 207°
2026-05-05 03:46 -34.60768 -58.81483 6646 ft 272 kts 207°
2026-05-05 03:46 -34.62497 -58.82417 6308 ft 272 kts 207°
2026-05-05 03:46 -34.64227 -58.83355 5946 ft 271 kts 207°
2026-05-05 03:46 -34.65955 -58.84289 5633 ft 268 kts 207°
2026-05-05 03:47 -34.67612 -58.85186 5495 ft 259 kts 207°
2026-05-05 03:47 -34.69232 -58.86065 5348 ft 250 kts 207°
2026-05-05 03:47 -34.70779 -58.86903 5201 ft 241 kts 207°
2026-05-05 03:47 -34.72284 -58.87718 5064 ft 232 kts 207°
2026-05-05 03:48 -34.73827 -58.88239 4844 ft 234 kts 182°
2026-05-05 03:48 -34.75395 -58.87699 4490 ft 239 kts 147°
2026-05-05 03:48 -34.76481 -58.86194 4150 ft 238 kts 112°
2026-05-05 03:48 -34.76895 -58.84283 3872 ft 235 kts 99°
2026-05-05 03:49 -34.77215 -58.82320 3607 ft 232 kts 99°
2026-05-05 03:49 -34.77524 -58.80421 3314 ft 232 kts 99°
2026-05-05 03:49 -34.77836 -58.78493 3009 ft 232 kts 99°
2026-05-05 03:49 -34.78147 -58.76556 2702 ft 232 kts 98°
2026-05-05 03:50 -34.78458 -58.74631 2403 ft 232 kts 98°
2026-05-05 03:50 -34.78784 -58.72742 2218 ft 225 kts 99°
2026-05-05 03:50 -34.79105 -58.70944 2224 ft 206 kts 99°
2026-05-05 03:50 -34.79395 -58.69329 2210 ft 184 kts 98°
2026-05-05 03:51 -34.79653 -58.67894 2050 ft 165 kts 98°
2026-05-05 03:51 -34.79893 -58.66544 1861 ft 165 kts 98°
2026-05-05 03:51 -34.80137 -58.65179 1672 ft 165 kts 97°
2026-05-05 03:51 -34.80382 -58.63817 1437 ft 163 kts 98°
2026-05-05 03:52 -34.80622 -58.62476 1234 ft 161 kts 98°
2026-05-05 03:52 -34.80859 -58.61150 1023 ft 159 kts 98°
2026-05-05 03:52 -34.81092 -58.59862 823 ft 157 kts 99°
2026-05-05 03:52 -34.81321 -58.58581 629 ft 152 kts 100°
2026-05-05 03:53 -34.81546 -58.57332 449 ft 150 kts 101°
2026-05-05 03:53 -34.81769 -58.56099 261 ft 148 kts 101°
2026-05-05 03:53 -34.81982 -58.54905 106 ft 140 kts 101°
2026-05-05 03:53 -34.82173 -58.53845 85 ft 111 kts 102°
2026-05-05 03:54 -34.82306 -58.53112 84 ft 66 kts 102°
2026-05-05 03:54 -34.82368 -58.52757 87 ft 35 kts 101°
2026-05-05 03:54 -34.82420 -58.52466 82 ft 36 kts 103°
2026-05-05 03:54 -34.82474 -58.52171 85 ft 35 kts 102°
2026-05-05 03:55 -34.82511 -58.51963 83 ft 17 kts 103°
2026-05-05 03:55 -34.82479 -58.51838 86 ft 17 kts 35°
2026-05-05 03:55 -34.82349 -58.51795 69 ft 22 kts 13°
2026-05-05 03:55 -34.82265 -58.51813 78 ft 6 kts 290°
2026-05-05 03:56 -34.82253 -58.51875 72 ft 11 kts 283°
2026-05-05 03:56 -34.82227 -58.52011 75 ft 22 kts 282°
2026-05-05 03:56 -34.82188 -58.52213 75 ft 19 kts 285°
2026-05-05 03:56 -34.82155 -58.52375 76 ft 18 kts 283°
2026-05-05 03:57 -34.82125 -58.52529 75 ft 20 kts 283°
2026-05-05 03:57 -34.82091 -58.52699 74 ft 21 kts 284°
2026-05-05 03:57 -34.82061 -58.52845 83 ft 11 kts 283°
2026-05-05 03:57 -34.82044 -58.52936 83 ft 11 kts 283°
2026-05-05 03:58 -34.82030 -58.52978 83 ft 2 kts 327°
2026-05-05 03:58 -34.81989 -58.52995 83 ft 12 kts 346°
2026-05-05 03:58 -34.81878 -58.53028 85 ft 18 kts 346°
2026-05-05 03:58 -34.81762 -58.53069 85 ft 17 kts 344°
2026-05-05 03:59 -34.81646 -58.53112 84 ft 18 kts 343°
2026-05-05 03:59 -34.81544 -58.53190 84 ft 16 kts 302°
2026-05-05 03:59 -34.81486 -58.53310 82 ft 16 kts 298°
2026-05-05 03:59 -34.81435 -58.53425 78 ft 15 kts 299°
2026-05-05 04:00 -34.81388 -58.53528 70 ft 13 kts 293°
2026-05-05 04:00 -34.81415 -58.53603 76 ft 10 kts 204°
2026-05-05 04:00 -34.81472 -58.53631 78 ft 8 kts 206°
2026-05-05 04:00 -34.81518 -58.53658 74 ft 7 kts 206°
2026-05-05 04:01 -34.81556 -58.53685 77 ft 6 kts 216°
2026-05-05 04:01 -34.81591 -58.53723 77 ft 8 kts 225°
2026-05-05 04:01 -34.81584 -58.53788 72 ft 6 kts 334°
2026-05-05 04:01 -34.81542 -58.53795 72 ft 5 kts 354°
2026-05-05 04:02 -34.81522 -58.53798 71 ft 2 kts 353°
2026-05-05 04:02 -34.81514 -58.53799 74 ft 0 kts 353°
2026-05-05 04:02 -34.81507 -58.53800 75 ft 0 kts 353°